Lapse_Rate
6.9 6.9 7.0 7.1 6.3 6.9 7.8 8.5 9.5 9.5 9.1 8.3 8.0 8.2 8.2 8.6 7.6 7.0 6.5 6.6 6.8 7.0 6.9 6.7 6.5 6.6 6.5 6.4 6.3 6.2 6.2 6.2 6.1 6.0 5.8 5.8 5.9 6.1 6.2 6.1 6.1 6.2 6.5 6.5 6.6 6.7 6.6 6.6 6.2
7.0 7.0 7.0 6.5 6.5 7.8 8.4 9.3 9.7 9.4 8.9 7.8 7.9 7.5 8.0 7.8 7.4 7.0 6.9 7.1 7.1 7.0 6.8 6.8 6.7 6.6 6.5 6.5 6.3 6.2 6.2 6.2 6.1 6.0 5.9 5.8 5.9 5.9 6.0 6.1 6.1 6.2 6.3 6.4 6.4 6.6 6.6 6.4 6.3
7.1 7.1 6.3 6.6 7.0 7.5 8.4 9.6 9.5 9.2 8.4 8.0 7.8 7.6 7.6 7.7 7.2 7.0 6.7 7.1 7.0 7.0 6.8 6.7 6.5 6.4 6.4 6.5 6.4 6.3 6.2 6.1 5.9 6.0 5.9 5.8 5.8 5.9 6.0 6.4 6.3 6.1 5.5 6.0 5.5 6.1 6.6 6.4 6.3
7.0 7.0 6.9 6.7 7.5 8.2 8.8 9.5 9.4 8.9 7.5 8.0 7.6 7.7 7.7 7.4 6.9 6.9 6.6 6.8 7.0 7.1 6.9 6.7 6.5 6.3 6.3 6.3 6.2 6.4 6.2 6.0 5.9 5.9 5.8 5.8 5.6 5.8 6.2 5.9 6.1 5.7 5.4 5.9 5.4 5.3 5.7 6.2 6.1
6.6 6.3 6.7 7.3 7.7 8.1 8.6 9.5 9.2 8.5 7.8 7.6 7.7 7.9 7.9 7.4 6.8 6.6 6.4 7.0 7.0 7.1 6.8 6.8 6.6 6.5 6.3 6.3 6.2 6.3 6.4 6.2 6.2 6.2 6.1 5.9 5.9 5.8 6.0 6.0 5.8 6.0 6.1 6.3 5.6 5.4 5.4 5.6 5.9
6.6 6.5 6.6 7.4 8.0 8.3 8.9 9.6 9.1 8.1 8.0 7.4 7.5 7.8 8.2 7.3 7.1 7.0 6.2 6.8 6.7 7.1 6.9 6.8 6.8 6.5 6.3 6.3 6.3 6.3 6.3 6.3 6.3 6.5 6.5 6.2 6.3 6.1 6.0 6.1 5.8 5.6 6.1 6.1 6.2 5.8 5.7 5.7 5.9
6.3 6.6 6.9 7.5 8.0 8.5 9.5 9.4 9.3 8.4 7.6 7.5 7.3 7.6 7.9 7.5 7.0 6.5 6.5 6.6 6.8 6.9 7.1 6.7 6.7 6.7 6.5 6.4 6.3 6.3 6.3 6.3 6.3 6.4 6.6 6.5 6.4 6.2 6.4 6.4 6.0 5.9 6.0 5.9 6.2 5.2 5.7 6.0 6.1
6.2 6.2 6.7 7.2 7.8 8.2 8.8 9.4 9.3 7.7 7.8 8.0 7.4 7.2 7.9 7.7 6.6 6.5 6.8 6.9 6.9 6.8 6.9 7.0 6.6 6.6 6.6 6.5 6.4 6.3 6.3 6.3 6.4 6.4 6.5 6.5 6.7 6.6 6.5 6.6 6.4 6.2 6.1 5.7 5.6 5.5 5.8 5.7 5.8
6.1 6.1 6.2 7.0 7.6 8.0 8.6 9.1 8.8 7.8 7.5 8.2 7.5 6.9 7.9 7.2 6.5 6.7 7.2 6.9 6.8 6.9 6.9 6.9 6.8 6.6 6.6 6.6 6.5 6.4 6.3 6.3 6.5 6.6 6.6 6.7 6.9 6.9 6.8 6.7 6.6 6.3 6.0 5.8 5.8 5.9 5.9 5.8 5.6
5.7 5.8 6.4 7.2 7.6 8.1 8.6 9.3 8.9 7.8 7.6 8.0 7.6 6.8 7.7 6.9 7.0 6.6 6.8 7.0 6.8 7.1 7.0 6.9 6.9 6.9 6.7 6.8 6.7 6.5 6.5 6.4 6.5 6.6 6.7 6.8 7.1 7.0 6.8 6.5 6.5 6.4 6.1 5.9 5.8 5.9 5.8 5.4 5.5
6.0 5.7 6.6 7.0 7.6 8.0 8.2 8.5 9.5 7.7 7.5 7.3 7.7 7.1 6.8 7.4 6.8 6.6 6.6 6.5 6.3 6.7 6.8 7.1 7.0 7.0 6.9 7.1 6.9 6.6 6.6 6.5 6.6 6.7 6.7 6.9 7.3 7.2 6.8 6.6 6.6 6.3 6.0 6.0 5.9 5.9 5.9 5.4 5.7
6.2 6.4 6.5 6.6 6.9 7.3 7.4 7.6 8.0 7.6 7.6 7.8 7.6 7.6 7.4 7.1 6.7 6.6 6.5 6.6 6.7 6.2 6.2 7.0 7.2 7.0 7.0 7.1 7.1 6.9 6.8 6.7 6.6 6.7 6.8 7.1 7.3 7.3 6.9 6.6 6.4 6.2 6.0 5.9 5.7 5.7 5.7 5.5 5.5
6.5 6.7 6.9 6.8 6.7 6.9 7.2 6.9 7.3 7.2 7.3 7.6 7.5 7.3 7.3 7.2 7.2 6.6 6.4 6.5 6.5 6.6 6.4 6.0 7.1 7.1 7.1 6.9 7.0 7.0 7.0 6.9 6.8 6.8 7.0 7.1 7.5 7.4 7.0 6.6 6.4 6.0 5.9 5.6 5.5 5.4 5.6 5.6 5.3
6.8 7.0 6.9 7.0 6.8 6.8 6.7 6.9 6.7 6.9 7.2 7.2 7.3 7.2 7.0 7.3 7.0 6.8 6.4 6.5 6.3 6.5 6.6 6.2 6.6 6.8 7.1 6.9 6.9 7.1 7.0 6.9 6.9 7.0 7.3 7.4 7.7 7.6 7.1 6.8 6.6 6.1 5.8 5.6 5.5 5.5 5.4 5.4 5.2
6.6 6.6 6.9 6.7 7.1 7.2 7.2 6.6 6.6 6.7 7.1 7.1 7.2 7.1 7.0 6.8 6.7 6.4 6.4 6.5 6.5 6.7 6.6 6.6 6.4 6.7 6.9 6.9 6.9 6.9 7.0 6.8 6.9 7.0 7.2 7.7 7.8 7.7 7.3 7.2 7.0 6.5 6.1 5.8 5.4 5.5 5.2 5.3 5.1
6.3 6.9 6.8 6.8 7.2 7.2 7.7 6.4 7.1 7.2 7.3 7.3 7.3 7.3 7.0 6.8 6.6 6.5 6.5 6.4 6.4 6.6 6.6 6.2 6.0 6.6 6.8 6.9 6.8 6.8 6.8 6.8 6.7 7.1 7.3 7.7 8.0 7.8 7.4 7.3 7.1 6.8 6.4 6.0 6.0 5.4 5.0 5.1 5.3
6.4 6.7 6.9 7.0 7.6 7.8 8.4 7.4 7.7 7.9 8.0 7.9 7.9 7.6 7.3 7.1 6.5 6.5 6.6 6.4 6.4 6.7 6.5 6.2 6.1 5.9 6.2 7.0 6.9 6.6 6.8 6.8 6.8 6.8 7.3 7.9 8.1 7.9 7.5 7.3 7.3 7.0 6.7 6.3 6.1 5.9 5.2 5.4 5.5
7.2 7.8 7.6 7.4 7.6 8.3 8.4 8.6 8.1 8.8 8.4 8.6 8.5 7.7 7.5 7.2 6.9 6.6 6.6 6.6 6.3 6.1 6.3 6.5 6.5 6.7 6.3 6.2 6.7 6.7 6.9 7.0 6.9 6.9 7.2 7.9 8.1 8.0 7.6 7.4 7.3 7.1 7.0 6.5 6.4 5.9 5.7 5.1 5.2
7.1 7.8 7.7 7.5 7.9 8.5 8.4 6.7 7.6 8.3 8.9 8.9 8.8 7.9 7.8 7.5 7.2 7.1 6.7 6.5 6.2 6.1 6.4 6.6 6.7 6.8 6.5 6.3 6.5 6.6 6.7 7.1 7.0 7.0 7.3 7.7 8.2 8.1 7.6 7.4 7.3 7.0 7.2 6.7 6.3 5.9 5.5 5.7 5.1
7.4 7.9 7.5 7.7 8.0 8.3 8.5 6.9 7.0 7.8 7.6 8.5 8.3 8.9 8.1 8.3 7.6 7.6 7.0 6.2 5.8 6.4 6.5 6.8 6.8 6.9 6.9 6.9 6.6 6.6 6.7 6.7 7.3 7.2 7.4 7.7 8.3 8.2 7.7 7.5 7.2 7.1 7.0 6.9 6.5 6.3 6.0 5.8 5.4
7.5 7.4 7.7 8.5 8.6 9.0 8.1 6.7 6.6 7.0 7.4 7.5 8.3 7.8 8.9 8.9 8.5 8.4 6.9 6.0 5.8 6.2 6.5 6.9 6.8 6.9 7.1 7.1 6.8 6.5 6.8 6.9 7.2 7.4 7.8 8.1 8.4 8.1 7.8 7.5 7.3 7.2 7.1 6.9 6.7 6.3 6.1 6.1 5.7
7.6 8.3 8.8 8.8 8.5 8.6 8.7 7.6 6.9 6.9 7.5 8.0 7.9 8.5 8.5 9.3 8.9 8.1 6.9 6.3 5.8 5.4 7.0 6.7 6.8 6.9 6.9 7.1 6.7 6.7 7.1 7.0 7.1 7.3 7.7 8.3 8.3 8.1 7.8 7.6 7.3 7.3 7.2 6.9 6.5 6.2 5.8 6.0 5.5
7.6 8.7 9.1 8.7 8.6 8.5 7.6 7.7 6.5 7.5 7.7 8.0 8.1 8.5 9.4 9.3 8.7 8.2 7.1 6.4 6.0 5.6 6.9 6.8 6.7 6.7 6.6 7.1 6.5 6.6 7.0 7.0 7.0 7.3 7.6 8.3 8.3 7.9 7.9 7.6 7.4 7.4 7.3 6.9 6.5 6.3 6.0 6.0 5.6
8.5 8.2 8.5 8.5 8.4 8.1 6.6 8.6 6.6 7.9 8.4 8.9 9.1 9.3 9.3 8.5 7.2 7.4 7.4 7.1 6.6 6.8 7.2 7.0 6.9 6.6 6.6 6.8 6.5 6.6 7.0 7.0 6.9 7.3 8.0 8.4 8.2 8.0 7.8 7.4 7.4 7.4 7.2 6.8 6.4 6.1 6.6 6.1 5.5
9.1 9.0 9.2 8.3 7.9 6.9 8.1 8.3 6.7 7.9 8.8 8.6 8.7 9.1 8.5 7.5 6.8 7.8 7.3 7.0 7.2 7.4 7.2 6.9 6.8 6.7 6.7 6.5 6.4 6.6 6.9 7.0 7.0 7.3 8.1 8.4 7.9 7.8 7.7 7.3 7.4 7.3 7.1 6.7 6.3 6.1 6.1 6.1 5.3
8.4 8.2 8.6 8.8 8.6 8.5 8.9 8.0 6.7 7.9 8.8 8.6 8.9 8.6 8.1 7.7 7.5 7.6 7.3 7.5 7.5 7.5 7.4 7.3 6.9 6.6 6.8 6.5 6.4 6.6 6.9 7.0 7.0 7.2 7.8 8.0 7.8 7.6 7.6 7.4 7.4 7.1 6.9 6.5 6.1 5.7 5.9 5.6 5.3
7.5 8.0 8.1 8.0 8.5 8.9 7.8 8.0 8.5 8.0 9.0 8.5 8.3 8.0 8.0 7.9 7.4 7.4 7.5 7.2 7.7 7.2 7.1 7.4 7.1 6.6 6.5 6.9 6.5 6.6 6.7 6.9 6.8 7.0 7.6 7.8 7.6 7.5 7.6 7.5 7.4 7.1 6.8 6.4 6.1 5.8 5.7 5.3 5.1
8.0 7.8 7.6 7.0 7.6 8.2 8.2 8.6 8.4 8.2 8.6 8.4 7.4 7.7 7.6 7.7 7.4 7.6 7.5 7.3 7.8 7.6 7.4 7.3 7.4 7.1 6.6 6.7 6.8 6.5 6.7 6.8 6.6 6.7 7.4 7.6 7.5 7.7 7.6 7.6 7.4 7.0 6.7 6.1 5.9 6.0 5.4 5.1 4.9
8.3 7.6 7.9 7.4 7.3 8.4 8.4 9.0 8.8 8.2 6.7 8.2 8.0 7.6 7.5 7.5 7.5 7.6 7.4 7.8 7.7 7.5 7.8 7.4 7.4 7.2 7.0 6.9 6.9 6.7 6.6 6.7 6.5 6.7 7.0 7.6 7.4 7.7 7.6 7.6 7.3 6.9 6.7 6.2 6.1 6.3 5.8 5.2 4.8
8.4 7.1 7.1 6.9 6.9 7.2 8.2 8.1 7.4 7.5 7.1 6.8 7.7 7.6 7.6 7.6 7.9 8.1 8.2 7.9 7.1 6.7 6.3 7.3 7.2 7.4 7.0 6.8 6.9 6.7 6.7 6.6 6.6 6.7 6.9 7.5 7.4 7.6 7.6 7.8 7.4 7.0 6.7 6.2 6.3 6.3 5.9 5.8 5.0
Wind_Speed
8 11 8 7 6 7 14 19 22 5 2 6 7 5 11 10 13 5 12 11 17 16 16 16 14 13 13 12 11 13 14 15 16 15 14 14 14 15 15 14 13 13 13 13 16 17 18 20 21
14 14 9 6 9 11 15 21 15 3 9 10 2 3 5 3 11 11 12 7 15 16 14 17 15 13 12 12 11 13 15 14 15 16 15 15 15 15 15 14 12 10 4 9 15 16 16 18 19
12 13 7 5 12 14 17 17 6 15 11 7 4 6 6 6 9 10 17 10 13 15 14 19 17 15 13 12 12 12 14 15 15 16 15 17 17 17 15 15 16 25 13 17 4 10 16 18 18
6 6 6 9 19 19 23 19 3 10 6 5 10 7 7 10 11 7 18 13 11 13 16 22 21 17 15 13 12 13 13 13 13 14 14 16 17 18 18 21 19 25 21 13 16 4 16 18 17
9 7 11 14 20 21 21 22 6 5 3 9 12 13 9 11 12 11 16 12 10 12 14 18 20 17 15 14 13 14 15 14 14 15 14 16 17 18 22 21 17 19 21 24 20 13 12 16 16
8 7 13 15 20 23 20 16 5 5 9 7 7 10 7 12 12 8 13 10 7 15 13 15 16 16 15 14 13 14 15 14 16 15 17 15 16 20 21 14 22 19 12 18 19 19 19 16 15
16 12 19 21 19 23 21 8 11 12 14 9 6 10 11 14 11 6 8 9 7 14 14 10 12 14 15 15 14 14 16 15 17 17 18 17 17 18 17 19 18 13 11 19 20 25 24 19 14
13 14 24 20 18 25 21 23 9 12 15 15 17 9 8 14 9 4 5 6 8 9 11 12 10 12 12 12 15 15 17 16 16 18 18 17 19 17 14 16 15 16 15 12 15 19 21 19 15
19 15 17 24 24 22 22 20 5 5 12 14 9 12 3 10 9 7 5 6 8 7 9 11 11 9 12 13 13 14 16 17 16 15 17 17 13 15 16 16 18 15 16 16 19 18 20 20 16
19 17 25 22 22 21 22 17 6 10 13 17 11 11 9 9 7 9 10 11 11 10 10 10 11 10 9 10 14 13 13 12 13 13 13 14 15 16 17 17 20 17 18 17 18 17 19 17 11
23 25 22 23 24 21 22 24 10 13 14 12 15 14 14 14 9 7 7 7 16 17 12 13 12 10 9 7 8 9 11 11 13 16 16 16 14 14 14 12 13 14 16 13 14 14 12 15 12
28 27 25 23 23 24 23 20 21 17 16 15 12 10 12 15 13 9 6 7 7 12 17 17 15 13 11 6 5 7 7 8 6 14 17 12 5 6 6 7 10 12 13 11 13 10 13 14 16
26 26 27 24 22 22 21 21 22 22 19 16 17 16 15 10 8 5 7 8 8 8 11 17 16 14 12 8 8 7 7 8 10 12 17 15 9 8 6 6 11 11 15 14 10 10 10 12 16
22 26 25 24 25 23 22 22 19 22 19 22 20 17 12 14 12 8 8 10 8 6 6 12 13 14 13 12 11 9 8 7 7 10 14 18 12 8 8 7 7 8 15 15 12 8 6 4 1
22 27 24 24 23 22 19 27 29 21 22 25 23 20 18 15 16 17 14 13 9 8 10 10 12 12 14 12 10 9 8 8 10 9 13 19 15 8 10 8 7 5 13 15 12 6 6 5 6
26 22 19 20 24 25 21 29 23 22 24 25 24 20 19 18 16 14 12 11 9 7 9 11 13 13 15 13 10 7 9 9 7 8 11 15 17 14 9 7 6 9 12 9 7 5 4 5 7
18 20 26 28 23 20 23 30 23 22 22 21 20 21 18 18 12 12 12 8 11 9 2 2 3 10 12 12 12 12 13 9 8 5 7 11 13 15 9 7 6 12 7 8 9 6 8 6 4
19 20 22 24 21 21 21 20 21 13 22 19 14 13 10 9 15 17 12 7 4 7 6 5 4 4 4 7 9 10 9 11 9 7 6 10 8 12 8 7 7 8 8 8 8 10 7 7 5
25 25 28 25 21 20 10 18 24 21 16 16 10 9 12 11 9 10 7 6 7 2 2 4 5 7 4 3 6 8 11 10 10 10 9 11 12 12 11 7 7 9 10 12 12 8 13 8 8
25 26 27 23 22 18 10 22 22 24 23 15 17 14 15 10 8 13 9 7 5 3 4 5 7 8 6 6 5 7 8 9 9 9 11 10 12 13 11 9 9 11 8 13 12 12 7 8 5
22 24 23 25 23 17 13 23 24 23 24 21 21 21 13 10 11 8 9 6 7 4 5 7 7 10 7 8 5 3 4 5 3 6 8 11 9 9 10 12 10 11 10 11 14 14 15 11 6
24 19 22 21 18 15 15 18 21 18 20 21 23 22 10 4 6 8 7 4 6 7 3 4 10 8 5 8 6 9 5 6 5 6 5 6 6 10 11 11 10 11 9 12 13 13 14 13 11
25 20 20 17 17 18 21 14 18 16 24 26 24 26 12 9 9 6 5 6 2 7 1 5 3 9 5 3 3 5 8 5 4 7 9 8 8 9 10 12 13 12 9 11 14 15 15 13 12
19 17 20 19 13 14 22 16 22 17 20 9 13 5 12 13 9 3 7 2 4 6 4 6 5 4 3 4 6 4 8 9 8 10 9 9 8 9 12 12 12 11 12 12 13 16 20 17 14
25 16 11 6 10 17 9 13 23 14 19 11 10 14 13 12 8 3 5 2 4 5 4 5 12 7 6 4 4 7 7 11 12 11 9 9 8 8 10 9 11 10 12 12 12 14 15 18 16
17 8 12 21 13 16 14 12 20 21 18 4 12 18 12 10 7 4 3 2 3 4 4 5 8 14 6 4 5 6 6 6 7 6 7 6 6 6 5 5 6 8 9 11 12 10 10 16 18
9 11 13 17 21 13 10 20 15 10 11 10 15 16 12 9 6 5 3 5 3 4 6 6 6 11 10 5 5 6 7 6 5 6 7 7 9 8 9 8 7 10 9 10 10 10 12 14 17
14 13 7 6 4 13 15 19 4 10 11 16 13 11 10 8 4 2 1 2 3 5 6 6 5 8 10 13 4 6 6 7 5 5 9 9 9 10 11 10 9 9 9 9 9 10 10 14 13
4 7 8 7 6 8 11 12 12 4 12 10 15 11 8 6 3 1 3 1 3 5 5 6 7 6 10 7 10 7 7 7 7 5 6 9 11 12 12 12 11 11 10 10 9 9 10 13 17
7 8 2 2 6 9 13 14 6 9 17 17 11 7 7 0 2 2 5 3 4 3 1 5 6 8 8 10 11 11 7 7 8 9 6 6 8 12 12 12 12 12 12 11 11 11 11 10 14
Wind_Direction
200 221 229 246 251 231 258 253 262 78 105 52 21 312 11 7 33 77 82 81 108 114 126 141 136 140 140 143 148 158 162 163 153 148 147 148 146 132 124 129 130 137 141 139 129 130 127 123 112
215 217 230 275 243 258 255 245 244 99 76 92 141 291 307 43 95 121 106 107 114 119 140 137 143 143 141 141 150 162 170 167 157 152 157 153 151 142 137 137 141 134 69 146 139 137 132 125 118
273 268 255 233 238 249 268 303 71 110 103 125 198 229 210 262 124 141 119 140 126 125 149 137 148 150 142 145 150 166 169 164 164 159 161 157 153 153 143 150 118 98 10 10 324 156 133 126 129
229 227 250 258 255 250 243 279 72 107 117 161 230 197 234 55 131 115 130 149 140 142 125 146 150 152 148 148 151 158 162 162 165 162 163 161 159 154 133 128 142 138 134 144 41 240 147 132 141
239 264 239 247 249 255 272 282 56 239 230 200 234 240 220 130 108 115 133 154 151 122 123 145 149 152 152 150 157 157 161 168 172 167 167 165 164 150 146 141 150 137 129 110 133 223 173 144 154
216 228 252 251 251 249 255 263 195 209 271 180 268 268 269 119 138 160 139 149 148 119 128 140 149 154 154 153 160 161 159 171 173 177 165 171 162 151 145 134 148 157 124 145 169 180 163 152 163
247 241 245 257 267 276 279 151 207 220 220 197 229 242 248 164 112 77 139 144 128 126 127 139 157 162 159 161 168 169 165 174 176 175 168 172 156 154 148 147 160 159 158 174 181 168 153 153 169
234 254 259 260 268 268 275 294 191 209 231 243 189 226 237 93 88 135 143 142 131 126 129 143 160 167 166 166 173 177 171 178 188 177 172 174 157 159 158 161 169 166 170 180 157 149 145 152 164
235 244 251 253 253 263 271 271 200 227 256 255 165 206 115 106 134 170 165 165 137 145 150 148 160 173 174 172 174 176 174 180 189 179 177 172 172 169 171 186 179 176 176 169 156 149 151 148 162
236 244 241 249 266 269 270 278 200 241 234 257 192 200 258 152 192 197 180 179 172 178 168 164 165 170 175 181 161 180 179 179 188 192 175 182 193 182 188 186 183 176 177 157 152 150 146 136 149
233 241 248 250 264 272 289 294 266 237 231 232 256 197 227 237 214 224 230 209 184 178 178 176 166 167 183 187 157 178 186 184 190 192 182 190 195 186 201 175 178 170 163 158 147 148 157 152 165
254 250 250 253 262 278 281 291 278 280 259 247 234 264 237 225 204 188 228 226 239 189 178 176 171 168 183 165 176 185 190 185 188 194 193 184 193 181 189 177 172 168 177 159 165 177 181 159 176
256 258 260 263 258 262 279 279 282 270 277 277 271 263 276 281 271 216 220 226 221 239 178 174 168 169 174 180 177 199 205 190 192 190 193 196 190 186 180 180 172 177 169 176 177 176 182 185 192
268 267 263 264 252 259 259 268 257 264 270 271 271 263 244 258 259 262 236 237 228 226 224 162 169 165 172 188 181 189 216 203 197 195 195 199 191 183 183 180 178 183 173 173 174 170 186 203 213
271 273 275 266 265 264 257 255 249 254 258 261 254 249 248 245 252 242 229 239 226 227 193 165 162 169 176 187 193 182 208 232 197 210 193 190 194 185 184 186 172 170 161 161 165 179 193 159 205
277 281 270 263 253 256 240 257 257 249 245 243 243 241 229 221 232 249 251 232 228 232 198 180 178 181 177 185 179 186 212 221 227 197 207 185 191 191 183 180 178 157 165 159 155 140 181 238 195
255 261 262 268 259 252 238 250 250 247 259 252 235 230 227 228 210 234 240 220 218 238 215 104 73 170 187 182 180 189 199 218 234 221 197 189 184 192 184 186 173 156 152 158 152 168 186 219 228
256 248 253 259 262 260 280 292 295 273 284 273 229 247 225 230 214 211 219 241 81 42 28 3 335 318 195 188 183 185 197 208 212 228 209 180 185 194 187 185 170 161 161 163 164 173 167 176 226
259 270 280 275 283 295 333 301 274 292 270 266 237 214 261 233 222 237 196 153 120 153 291 258 253 242 221 209 193 200 190 202 206 207 226 187 190 195 196 176 173 170 172 171 173 178 178 196 208
269 269 261 268 266 277 293 269 272 281 288 295 307 221 235 229 238 224 160 115 91 17 332 282 256 234 216 208 218 208 211 190 193 189 205 233 187 188 183 169 178 183 171 171 171 173 184 193 188
260 263 275 276 281 273 278 271 265 270 275 284 289 284 222 244 223 171 107 110 109 225 39 309 280 272 223 211 209 164 72 104 131 178 191 210 185 180 182 174 176 182 177 181 178 179 184 189 200
265 270 283 280 280 269 257 265 249 256 263 256 261 266 242 197 86 102 113 172 141 84 41 315 318 303 257 194 228 150 170 173 187 181 191 201 201 172 187 186 175 183 181 185 189 186 186 188 195
282 292 271 276 284 287 260 247 259 254 250 249 228 234 218 150 134 108 113 56 10 92 79 286 298 315 341 8 292 186 177 195 171 177 182 193 218 194 192 189 188 185 186 182 185 189 190 196 195
272 284 280 269 280 261 254 259 268 259 255 233 232 137 124 107 100 110 103 199 118 100 32 340 242 242 46 332 308 236 191 184 188 195 189 193 208 199 196 200 186 180 190 190 193 197 195 189 195
258 245 256 264 239 253 247 249 250 259 252 250 187 149 125 111 115 203 130 64 62 71 76 357 333 298 149 197 260 276 220 202 215 201 185 180 191 202 201 187 184 182 187 196 197 200 203 188 188
303 303 271 240 251 260 273 250 250 237 250 326 248 130 124 132 138 209 149 61 29 62 54 59 347 323 125 169 234 242 244 244 231 191 177 182 183 177 171 178 162 183 184 201 203 207 208 198 193
305 284 311 268 262 281 260 281 238 288 203 116 115 128 147 134 135 224 126 143 38 11 40 47 10 340 337 182 229 253 231 246 239 202 194 180 166 175 181 174 186 198 193 196 190 203 198 190 190
282 323 297 226 231 238 245 265 196 233 180 145 152 156 138 131 145 256 114 36 63 46 39 34 5 2 341 339 261 251 247 241 255 240 191 170 160 168 167 165 178 177 187 184 188 201 202 189 184
262 278 268 287 253 253 269 244 182 190 315 277 140 142 131 129 183 25 142 345 328 72 41 18 27 359 345 335 318 266 249 239 244 250 227 190 165 170 172 170 179 183 186 184 187 191 183 186 189
269 263 85 210 333 316 270 267 92 309 166 278 103 133 116 340 323 310 314 224 233 163 157 40 20 17 355 336 316 293 237 235 241 242 219 207 177 167 174 170 179 184 188 185 191 193 186 181 185